This is the latest recevied weather packets stored in our database for station/object K0WXC-1. If no packets are shown the sender has not sent any weather packets the latest 1 day(s).
| Time | Temp. | Humidity | Pressure | Rain* | Wind** | Luminosity | Snow |
|---|---|---|---|---|---|---|---|
| 1778090188 | 13.33° C | 36% | 1004.6 hPa | 0 mm | 0.89 m/s, 279° | - | - |
| 1778089888 | 13.89° C | 33% | 1004.9 hPa | 0 mm | 0.45 m/s, 135° | - | - |
| 1778089708 | 13.89° C | 34% | 1004.7 hPa | 0 mm | 0 m/s | - | - |
| 1778089588 | 13.89° C | 34% | 1004.7 hPa | 0 mm | 0 m/s | - | - |
| 1778089528 | 13.33° C | 37% | 1004.8 hPa | 0 mm | 1.34 m/s, 20° | - | - |
| 1778089468 | 13.33° C | 37% | 1004.8 hPa | 0 mm | 1.34 m/s, 20° | - | - |
| 1778089288 | 13.33° C | 37% | 1004.8 hPa | 0 mm | 1.34 m/s, 20° | - | - |
| 1778089048 | 12.78° C | 36% | 1004.9 hPa | 0 mm | 1.34 m/s, 295° | - | - |
| 1778088808 | 12.22° C | 35% | 1004.9 hPa | 0 mm | 1.34 m/s, 31° | - | - |
| 1778088688 | 12.22° C | 35% | 1004.9 hPa | 0 mm | 1.34 m/s, 31° | - | - |
| 1778088448 | 13.33° C | 34% | 1004.8 hPa | 0 mm | 3.13 m/s, 350° | - | - |
| 1778088328 | 13.33° C | 37% | 1005 hPa | 0 mm | 2.24 m/s, 26° | - | - |
| 1778087968 | 13.33° C | 39% | 1004.9 hPa | 0 mm | 0.89 m/s, 310° | - | - |
| 1778087488 | 13.33° C | 38% | 1005 hPa | 0 mm | 0.45 m/s, 66° | - | - |
| 1778087308 | 13.33° C | 35% | 1004.9 hPa | 0 mm | 0.45 m/s, 110° | - | - |
| 1778087128 | 12.78° C | 43% | 1005.2 hPa | 0 mm | 2.24 m/s, 304° | - | - |
| 1778087068 | 12.78° C | 43% | 1005.2 hPa | 0 mm | 2.24 m/s, 304° | - | - |
| 1778087008 | 12.78° C | 43% | 1005.2 hPa | 0 mm | 2.24 m/s, 304° | - | - |
| 1778086648 | 12.22° C | 37% | 1004.8 hPa | 0 mm | 1.34 m/s, 15° | - | - |
| 1778086588 | 12.22° C | 37% | 1004.8 hPa | 0 mm | 1.34 m/s, 15° | - | - |
| 1778086409 | 12.22° C | 38% | 1004.9 hPa | 0 mm | 2.68 m/s, 292° | - | - |
| 1778086168 | 12.78° C | 36% | 1005.1 hPa | 0 mm | 0.45 m/s, 58° | - | - |
| 1778086108 | 12.78° C | 36% | 1005.1 hPa | 0 mm | 0.45 m/s, 58° | - | - |
| 1778085688 | 12.22° C | 38% | 1005.2 hPa | 0 mm | 2.24 m/s, 29° | - | - |
| 1778085388 | 12.78° C | 37% | 1005.1 hPa | 0 mm | 0.89 m/s, 59° | - | - |
* Rain latest hour (hover to see other rain measurements)
** Current wind speed in m/s (hover to see current wind gust speed)